Regional Weather Roundup
Issued by NWS Kansas City/Pleasant Hill, MO

Home | Current Version | Previous Version | Text Only | Print | Product List | Glossary On
Versions: 1 2 3 4 5 6 7 8 9 10 11 12 13 14 15 16 17 18 19 20 21 22 23 24 25 26 27 28 29 30 31 32 33 34 35 36 37 38 39 40 41 42 43 44 45 46 47 48 49 50
980
ASUS43 KEAX 260910
RWREAX

WEATHER ROUNDUP FOR EASTERN KANSAS AND NORTHWEST MISSOURI
NATIONAL WEATHER SERVICE KANSAS CITY/PLEASANT HILL MO
400 AM CDT WED APR 26 2017

KSZ040-057-103>105-MOZ028-029-037-043-261000-
...KANSAS CITY METROPOLITAN AREA...

CITY           SKY/WX    TMP DP  RH WIND       PRES   REMARKS
K.C. INTL      CLOUDY    45  44  97 NW15G23   29.50S
K.C. DOWNTOWN  CLOUDY    48  45  89 NW12G17   29.51R
LEES SUMMIT    CLOUDY    48  47  96 NW12      29.51R
OLATHE - IXD   CLOUDY    46  44  93 NW18G26   29.53R
OLATHE - OJC   CLOUDY    46  46 100 N13       29.51R
LAWRENCE       CLOUDY    46  44  93 NW16G28   29.54R

$$

MOZ001>008-011>017-020>025-030>033-038>040-044>046-053-054-261000-
...NORTHERN AND CENTRAL MISSOURI...

CITY           SKY/WX    TMP DP  RH WIND       PRES   REMARKS
ST. JOSEPH     LGT RAIN  45  44  97 NW15      29.55R
WHITEMAN AFB   CLOUDY    60  60 100 SE7       29.37F
CLINTON        CLOUDY    59  59 100 SE7       29.40F
SEDALIA        LGT RAIN  61  61 100 E17G24    29.35F
WARSAW         NOT AVBL
CHILLICOTHE      N/A     50  47  89 VRB5      29.51R
KIRKSVILLE     CLOUDY    58  56  93 CALM      29.45R

$$

MOZ041-047>049-056>058-063>065-088>090-097-261000-
...EASTERN AND SOUTHERN MISSOURI...

CITY           SKY/WX    TMP DP  RH WIND       PRES   REMARKS
ST. LOUIS INTL CLOUDY    70  53  54 S13       29.47S
SPIRIT OF STL  CLOUDY    69  55  60 S10       29.45S
COLUMBIA       HVY RAIN  58  58 100 SW8       29.54S FOG
JEFFERSON CITY TSTM      62  58  86 W12       29.55R FOG
ROLLA          TSTM      59  59 100 W20G29    29.59R FOG
OSAGE BEACH    RAIN      59  58  96 E7        29.53F
SPRINGFIELD    CLOUDY    59  57  93 SE12      29.46R
BRANSON        LGT RAIN  57  57 100 CALM      29.57S
JOPLIN         CLOUDY    61  60  97 S6        29.50F
WEST PLAINS    CLOUDY    60  56  86 NW6       29.61R

$$

IAZ060-094-KSZ022-034>040-054-083-096-NEZ052-066-093-261000-
...KANSAS...SOUTHEAST NEBRASKA AND IOWA...

CITY           SKY/WX    TMP DP  RH WIND       PRES   REMARKS
TOPEKA         CLOUDY    45  43  93 NW13      29.57R
MANHATTAN      CLOUDY    43  35  73 NW9G22    29.63R
EMPORIA        CLOUDY    44  41  89 N13G23    29.56F
CHANUTE        CLOUDY    50  46  86 N12       29.53S
WICHITA        CLOUDY    45  40  82 N23       29.61R
OMAHA          DRIZZLE   39  34  82 NW18      29.60R WCI  30
LINCOLN        CLOUDY    39  33  79 N22G28    29.65S WCI  29
FALLS CITY     CLOUDY    41  37  86 NW18G26   29.57R WCI  32
LAMONI         LGT RAIN  45  43  93 NW14      29.49R
DES MOINES     CLOUDY    46  44  93 NW16      29.48R

$$





USA.gov is the U.S. government's official web portal to all federal, state and local government web resources and services.